EW7244 Weather Reports


time (UTC)temp
C
wind
direction
speed
KPH
gust
KPH
rain 1hr
cm
rain 24hr
cm
rain mn
cm
humidity
%
barometer
mb
20260509114610 21 165 0.0 1.6 0.00 0.00 0.00 58 1011.7
20260509113052 21 33 0.0 0.0 0.00 0.00 0.00 53 1011.9
20260509111600 20 146 0.0 0.0 0.00 0.00 0.00 48 1012.1
20260509104552 19 30 0.0 0.0 0.00 0.00 0.00 59 1012.5
20260509103056 19 74 0.0 0.0 0.00 0.00 0.00 64 1012.8
20260509101555 18 173 0.0 0.0 0.00 0.00 0.00 65 1012.8
20260509100045 18 135 0.0 0.0 0.00 0.00 0.00 61 1013.0
20260509094611 17 80 0.0 0.0 0.00 0.00 0.00 61 1013.1
20260509093054 17 224 0.0 0.0 0.00 0.00 0.00 65 1013.2
20260509091549 16 165 0.0 0.0 0.00 0.00 0.00 68 1013.3
20260509090004 16 136 0.0 0.0 0.00 0.00 0.00 71 1013.4
20260509084512 15 94 0.0 0.0 0.00 0.00 0.00 73 1013.5
20260509083052 15 82 0.0 0.0 0.00 0.00 0.00 75 1013.6
20260509081547 15 56 0.0 0.0 0.00 0.00 0.00 78 1013.7
20260509080058 14 159 0.0 0.0 0.00 0.00 0.00 78 1014.0
20260509074556 13 146 0.0 0.0 0.00 0.00 0.00 79 1014.1
20260509073024 13 53 0.0 0.0 0.00 0.00 0.00 82 1014.1
20260509071540 13 141 0.0 0.0 0.00 0.00 0.00 81 1014.1
20260509070023 13 119 0.0 0.0 0.00 0.00 0.00 81 1014.0
20260509064512 12 97 0.0 0.0 0.00 0.00 0.00 85 1014.1
20260509063004 12 91 0.0 0.0 0.00 0.00 0.00 86 1014.1
20260509061609 12 115 0.0 0.0 0.00 0.00 0.00 86 1014.2
20260509060101 12 102 0.0 0.0 0.00 0.00 0.00 85 1014.3
20260509054611 12 96 0.0 0.0 0.00 0.00 0.00 84 1014.4
20260509053140 11 355 0.0 0.0 0.00 0.00 0.00 86 1014.3
20260509051516 11 355 0.0 0.0 0.00 0.00 0.00 88 1014.3
20260509050052 10 355 0.0 0.0 0.00 0.00 0.00 88 1014.1
20260509044548 10 355 0.0 0.0 0.00 0.00 0.00 91 1013.9
20260509043041 9 5 0.0 0.0 0.00 0.00 0.00 91 1014.1
20260509041555 9 225 0.0 0.0 0.00 0.00 0.00 92 1014.0
20260509040101 9 225 0.0 0.0 0.00 0.00 0.00 91 1013.7
20260509034547 9 225 0.0 0.0 0.00 0.00 0.00 91 1013.7
20260509033057 9 225 0.0 0.0 0.00 0.00 0.00 91 1013.9
20260509031553 9 225 0.0 0.0 0.00 0.00 0.00 91 1013.6
20260509030049 9 225 0.0 0.0 0.00 0.00 0.00 90 1013.6
20260509024544 10 225 0.0 0.0 0.00 0.00 0.00 90 1013.6
20260509023052 10 225 0.0 0.0 0.00 0.00 0.00 90 1013.6
20260509021547 10 225 0.0 0.0 0.00 0.00 0.00 89 1013.6
20260509020048 10 225 0.0 0.0 0.00 0.00 0.00 89 1013.5
20260509014538 10 225 0.0 0.0 0.00 0.00 0.00 88 1013.3
20260509013018 10 225 0.0 0.0 0.00 0.00 0.00 88 1013.3
20260509011509 10 225 0.0 0.0 0.00 0.00 0.00 87 1013.3
20260509010058 10 225 0.0 0.0 0.00 0.00 0.00 87 1013.3
20260509004548 10 225 0.0 0.0 0.00 0.00 0.00 87 1013.3
20260509003107 10 225 0.0 0.0 0.00 0.00 0.00 87 1013.2
20260509001541 10 225 0.0 0.0 0.00 0.00 0.00 87 1013.3
20260509000107 10 225 0.0 0.0 0.00 0.00 0.00 87 1013.3
20260508234546 10 225 0.0 0.0 0.00 0.00 0.00 86 1013.3
20260508233040 11 225 0.0 0.0 0.00 0.00 0.00 86 1013.2
20260508231600 11 311 0.0 0.0 0.00 0.00 0.00 86 1013.3
20260508230049 11 217 0.0 0.0 0.00 0.00 0.00 85 1013.3
20260508224606 11 217 0.0 0.0 0.00 0.00 0.00 85 1013.4
20260508223057 11 217 0.0 0.0 0.00 0.00 0.00 85 1013.3
20260508221552 11 217 0.0 0.0 0.00 0.00 0.00 86 1013.2
20260508220041 12 217 0.0 0.0 0.00 0.00 0.00 85 1013.1
20260508214559 12 216 0.0 0.0 0.00 0.00 0.00 84 1013.1
20260508213056 12 216 0.0 0.0 0.00 0.00 0.00 83 1013.1
20260508211548 12 216 0.0 0.0 0.00 0.00 0.00 84 1012.9
20260508210041 12 216 0.0 0.0 0.00 0.00 0.00 84 1012.7
20260508204554 12 216 0.0 0.0 0.00 0.00 0.00 84 1012.7
20260508203042 12 216 0.0 0.0 0.00 0.00 0.00 84 1012.6
20260508201525 13 216 0.0 0.0 0.00 0.00 0.00 83 1012.5
20260508200005 13 216 0.0 0.0 0.00 0.00 0.00 83 1012.4
20260508194558 13 216 0.0 0.0 0.00 0.00 0.00 83 1012.3
20260508193058 13 216 0.0 0.0 0.00 0.00 0.00 82 1012.1
20260508191548 13 216 0.0 0.0 0.00 0.00 0.00 81 1011.8
20260508190059 13 216 0.0 0.0 0.00 0.00 0.00 80 1011.5
20260508184600 14 210 0.0 0.0 0.00 0.00 0.00 81 1011.2
20260508183100 14 180 0.0 0.0 0.00 0.00 0.00 78 1010.9
20260508181543 15 180 0.0 0.0 0.00 0.00 0.00 76 1010.8
20260508180052 15 180 0.0 0.0 0.00 0.00 0.00 76 1010.7
20260508174600 16 179 0.0 0.0 0.00 0.00 0.00 76 1010.6
20260508173042 16 179 0.0 0.0 0.00 0.00 0.00 74 1010.5
20260508171559 16 179 0.0 0.0 0.00 0.00 0.00 74 1010.5
20260508170048 17 179 0.0 0.0 0.00 0.00 0.00 73 1010.5
20260508164606 18 178 0.0 0.0 0.00 0.00 0.00 70 1010.5
20260508163115 18 178 0.0 0.0 0.00 0.00 0.00 68 1010.3
20260508161550 18 178 0.0 0.0 0.00 0.00 0.00 60 1010.4
20260508160042 18 178 0.0 0.0 0.00 0.00 0.00 57 1010.4
20260508154600 18 129 0.0 0.0 0.00 0.00 0.00 58 1010.3
20260508153041 18 98 0.0 0.0 0.00 0.00 0.00 55 1010.3
20260508151536 19 117 0.0 0.0 0.00 0.00 0.00 50 1010.4
20260508150033 19 125 0.0 0.0 0.00 0.00 0.00 52 1010.4
20260508144536 18 98 0.0 0.0 0.00 0.00 0.00 52 1010.5
20260508143029 19 163 0.0 0.0 0.00 0.00 0.00 54 1010.7
20260508141529 19 123 0.0 0.0 0.00 0.00 0.00 54 1010.7
20260508140034 19 126 0.0 0.0 0.00 0.00 0.00 55 1010.8
20260508134522 19 306 0.0 0.0 0.00 0.05 0.00 52 1010.9
20260508133011 19 336 0.0 0.0 0.00 0.05 0.00 56 1011.1
20260508131509 19 103 0.0 1.6 0.00 0.05 0.00 57 1011.3
20260508130008 19 87 0.0 0.0 0.00 0.05 0.00 59 1011.2
20260508124502 18 119 0.0 9.7 0.00 0.18 0.00 61 1011.4
20260508123005 18 92 0.0 1.6 0.00 0.18 0.00 61 1011.4
20260508121600 19 57 0.0 0.0 0.00 0.18 0.00 60 1011.5
20260508120057 18 157 0.0 0.0 0.00 0.18 0.00 56 1011.6